sat.trackr.live / text

‹ back to catalog

2024-166B

NORAD 61180 · 2024-166B

PAYLOAD ACTIVE UNKNOWN

§ Identity

Operator
Country
CIS
Launch date
2024-09-17
Launch site
PLMSC
Launch vehicle
Mass (kg)
RCS (m²)

External: N2YO · Heavens-Above · Gunter

§ Orbital elements

Epoch: 2026-09-22T20:25:46.706592Z

Period
91.40 min
Inclination
96.6622°
Eccentricity
0.0000761
Mean motion
15.75457651 rev/d
Perigee alt
342.8 km
Apogee alt
343.8 km
Semi-major
6,721.5 km
B*
1.2228e-4
RAAN
153.3017°
Arg perigee
134.8241°
Mean anomaly
225.3088°
Rev number
11,611

§ Raw data

2024-166B1 61180U 24166B   26265.85123503  .00018375  00000+0  12228-3 0  99942 61180  96.6622 153.3017 0000761 134.8241 225.3088 15.75457651116110

JSON: /api/v1/satellites/61180 · /tle

For live sub-satellite position, see the globe view (requires WebGL).

§ Visibility from observer

Set your observer location to see the next 7 days of passes ≥ 10°. The values pass through the URL so the page stays shareable.

No JS? Fill the form by hand. The geolocation button needs JavaScript.